Location: B?dimalle
(17.1788°N, 80.5377°E)
Time: 10:29:55
(UTC+00:00)

Tiros 1 despin weight - Pass Details

Date: 22 February 2026
Orbit: 556 x 593 km, 48.2° (Epoch: 10 March)

Event Time Altitude Azimuth Distance (km) Brightness Sun altitude
Rises 14:15:27 0° 342° (NNW) 2,724 ? -22.9°
Enters shadow 14:17:43 - 359° (N) 2,050 ? -23.4°
Reaches altitude 10° 14:18:40 10° 9° (N) 1,833 - -23.7°
Maximum altitude 14:20:52 14° 41° (NE) 1,599 - -24.2°
Drops below altitude 10° 14:23:05 10° 73° (ENE) 1,841 - -24.7°
Sets 14:26:20 0° 99° (E) 2,743 - -25.5°
